Regional Weather Roundup
Issued by NWS Boston, MA

Home | Current Version | Previous Version | Text Only | Print | Product List | Glossary On
Versions: 1 2 3 4 5 6 7 8 9 10 11 12 13 14 15 16 17 18 19 20 21 22 23 24 25 26 27
000
ASUS41 KBOX 232010
RWRBOX

REGIONAL WEATHER ROUNDUP
NATIONAL WEATHER SERVICE TAUNTON MA
400 PM EDT THU MAR 23 2017

NOTE:  "FAIR" INDICATES FEW OR NO CLOUDS BELOW 12,000 FEET WITH NO
SIGNIFICANT WEATHER AND/OR OBSTRUCTIONS TO VISIBILITY.

MAZALL-232100-
EASTERN MASSACHUSETTS

CITY           SKY/WX    TMP DP  RH WIND       PRES   REMARKS
BOSTON         MOSUNNY   38   2  22 NW17G26   30.42S WCI  28
BEVERLY        SUNNY     37   2  22 NW14G26   30.40R WCI  28
LAWRENCE       SUNNY     35   3  26 NW15      30.42R WCI  25
BEDFORD        SUNNY     37   0  21 NW15G25   30.41R WCI  28
BLUE HILL      NOT AVBL
NORWOOD        SUNNY     39  -1  18 W16G24    30.42S WCI  30
MARSHFIELD     SUNNY     39   0  19 NW15G29   30.41R WCI  31
PLYMOUTH       SUNNY     38  -1  19 NW15G22   30.41S WCI  29
TAUNTON        SUNNY     39  -1  18 W12G23    30.42S WCI  32
NEW BEDFORD    SUNNY     39   0  19 NW15G24   30.42S WCI  31
$$

MAZALL-232100-
CAPE COD AND THE ISLANDS

CITY           SKY/WX    TMP DP  RH WIND       PRES   REMARKS
FALMOUTH       SUNNY     37  -4  17 MISG      30.42S
HYANNIS        SUNNY     37   1  22 NW10G21   30.39F WCI  30
CHATHAM        SUNNY     35   4  27 NW10G18   30.42F WCI  27
PROVINCETOWN   SUNNY     36   8  31 NW17G23   30.42S WCI  26
NANTUCKET      SUNNY     35   0  22 W20G28    30.43S WCI  24
MARTHAS VNYRD  SUNNY     38   0  20 NW12G22   30.43F WCI  30
$$

MAZALL-232100-
CENTRAL AND WESTERN MASSACHUSETTS

CITY           SKY/WX    TMP DP  RH WIND       PRES   REMARKS
WORCESTER      SUNNY     33  -4  20 W20G26    30.38S WCI  21
FITCHBURG      SUNNY     37   5  26 N14G22    30.42S WCI  28
ORANGE         SUNNY     33   0  24 W12G24    30.43R WCI  24
SPRINGFIELD    MOSUNNY   37  -1  19 W10       30.44S WCI  30
WESTFIELD      SUNNY     36   3  25 NW14      30.46S WCI  27
NORTH ADAMS    SUNNY     34   3  27 W13       30.45F WCI  25
PITTSFIELD     SUNNY     31   2  29 NW12G23   30.42S WCI  22
$$

RIZALL-232100-
RHODE ISLAND

CITY           SKY/WX    TMP DP  RH WIND       PRES   REMARKS
PROVIDENCE     MOSUNNY   38  -2  18 W17G23    30.44S WCI  28
NEWPORT        SUNNY     38   1  21 NW14G22   30.44S WCI  30
BLOCK ISLAND   SUNNY     37  10  32 W14G21    30.47S WCI  28
SMITHFIELD     SUNNY     37   1  22 NW15      30.42S WCI  28
WESTERLY       SUNNY     41  -3  15 NW12G21   30.46F
$$

CTZALL-232100-
CONNECTICUT

CITY           SKY/WX    TMP DP  RH WIND       PRES   REMARKS
BRADLEY INTL   MOSUNNY   37   1  22 NW13G24   30.48R WCI  29
HARTFORD       SUNNY     37   1  22 W15G24    30.49S WCI  28
BRIDGEPORT     SUNNY     42   0  17 NW16G24   30.50F
DANBURY        SUNNY     38   0  20 VRB7      30.49F
GROTON         SUNNY     40  -2  17 NW14G23   30.47R
NEW HAVEN      SUNNY     38   1  21 NW10G20   30.50F WCI  31
CHESTER        FAIR      36  -6  17 NW13G21   30.47R WCI  27
MERIDEN        SUNNY     38  -1  19 NW13G29   30.49S WCI  30
WILLIMANTIC    SUNNY     39   1  20 W10G21    30.46S
OXFORD         SUNNY     34   0  23 NW9G18    30.48S WCI  26
$$

MEZ002-015-021-024-NHZ003-005-008-011-012-014-VTZ005-008-232100-
NORTHERN NEW ENGLAND

CITY           SKY/WX    TMP DP  RH WIND       PRES   REMARKS
PORTLAND ME    SUNNY     34   2  25 NW9G22    30.35F WCI  27
BANGOR ME      SUNNY     27   2  34 NW22G29   30.29R WCI  13
CONCORD NH     SUNNY     35   3  26 NW20G28   30.39S WCI  24
MANCHESTER NH  NOT AVBL
NASHUA NH      SUNNY     37   0  21 NW15G23   30.41  WCI  28
PORTSMOUTH NH  SUNNY     35   0  22 W20G28    30.36F WCI  24
JAFFREY NH     NOT AVBL
KEENE NH       SUNNY     34   0  23 N14G23    30.42  WCI  25
BURLINGTON VT  MOSUNNY   33   4  29 N14G22    30.46S WCI  23
MT. WASHINGTON MOSUNNY   -2  -8  78 NW67G75     N/A  WCI -37
$$

NYZ052-076-232100-
EASTERN NEW YORK

CITY           SKY/WX    TMP DP  RH WIND       PRES   REMARKS
ALBANY         MOSUNNY   36   6  28 W18G24    30.50F WCI  26
NEW YORK CITY  MOSUNNY   43  -1  16 NW17      30.52F
$$

ANZALL-232100-
MARINE OBSERVATIONS

STATION/POSITION TIME  TEMP    WIND        PRES    VSBY  WAVE
                       AIR SEA DIR/SP/G                  HT/PER
                 (UTC) (F)     (DEG/KT/KT) (MB)    (MI)  (FT/S)
BOSTON BUOY      1850   33 40  300/ 14/ 17 1029.5          3/ 4
BUZZARDS BAY     1900   33     300/ 16/ 19 1031.6F
NANTUCKET SOUND  1950      39              1030.0F         2/ 4
MASS BAY-STELLWA 1904   33 39  300/ 16/ 21 1028.3F         4/ 3
ISLE OF SHOALS   1900   32     310/ 23/ 26 1028.2F
S OF BLOCK IS    1955      40                N/A           4/ 4
$$

......................KEY.........................
  SKY/WX - SKY CONDITION/PRESENT WEATHER
  TMP    - TEMPERATURE IN FAHRENHEIT
  DWPT   - DEWPOINT IN FAHRENHEIT
  RH     - RELATIVE HUMIDITY IN PERCENT
  WIND   - DIRECTION AND SPEED IN MPH
  PRES   - MEAN SEA LEVEL PRESSURE IN INCHES OF HG
  WCI    - WIND CHILL INDEX
  VSB    - VISIBILITY IN MILES
  HX     - HEAT INDEX
  TC     - TEMPERATURE IN CELSIUS
  VRB    - VARIABLE WIND DIRECTION
  N/A    - NOT AVAILABLE




USA.gov is the U.S. government's official web portal to all federal, state and local government web resources and services.